Temp_Advection
nan nan nan nan nan nan nan nan nan nan nan nan nan nan nan nan nan nan nan nan nan nan nan nan nan nan nan nan nan nan nan nan nan nan nan nan nan nan nan nan nan nan nan nan nan nan nan nan nan nan nan nan nan nan nan nan nan nan nan nan nan nan nan nan nan nan nan nan nan nan nan nan nan nan nan nan nan nan nan nan nan nan nan nan nan
nan -3 -3 -2 -2 -2 -1 -1 -1 -1 -1 -1 -2 -2 -2 -2 -2 -1 -1 -1 -1 -1 -1 -1 -1 -1 -1 -1 -1 -1 -1 -1 -1 -1 -1 -1 -1 -1 -1 -1 -1 -1 -1 -1 -1 -1 -1 -1 -0 -0 -0 -0 -0 -0 -0 -0 -0 -0 -1 -0 -1 -1 -1 -1 -1 -1 -1 -1 -1 -1 -0 -0 -0 -0 -0 -0 -0 -1 -2 -2 -1 -1 -1 -1 nan
nan -2 -2 -2 -1 -1 -1 -1 -1 -1 -1 -2 -2 -2 -2 -2 -1 -1 -1 -1 -1 -1 -1 -1 -1 -0 -0 -1 -1 -1 -1 -1 -1 -1 -1 -1 -1 -1 -1 -1 -1 -1 -1 -1 -1 -1 -1 -1 -1 -1 -1 -0 -0 -0 -0 -0 -0 -0 -0 -0 -1 -1 -1 -0 -0 -1 -1 -1 -1 -1 -0 -0 -0 -0 -0 0 0 -0 -1 -1 -2 -1 -0 -0 nan
nan -1 -1 -1 -1 -1 -1 -1 -1 -1 -2 -2 -2 -2 -1 -1 -1 -1 -1 -1 -1 -1 -1 -1 -0 -0 -0 -0 -0 -0 -1 -1 -1 -1 -1 -1 -1 -1 -1 -1 -1 -1 -1 -1 -1 -1 -1 -1 -1 -1 -1 -1 -1 -1 -0 -0 -0 0 -0 -0 -0 -1 -1 -0 0 -0 -1 -1 -1 -1 -0 -0 -0 -0 -0 0 0 0 0 -0 -1 -2 -1 -0 nan
nan -1 -1 -1 -1 -1 -1 -1 -1 -2 -2 -2 -2 -1 -1 -1 -1 -1 -1 -1 -1 -1 -1 -0 -0 -0 -0 0 -0 0 -0 -0 -1 -1 -1 -1 -1 -1 -1 -1 -1 -1 -1 -1 -1 -1 -1 -1 -1 -1 -1 -1 -1 -1 -1 -1 -1 -0 -0 -0 -0 -1 -1 -0 -0 0 -0 -1 -1 -1 -0 -0 -0 -0 -0 -0 -0 0 0 0 -0 -1 -1 -1 nan
nan -1 -1 -1 -1 -1 -1 -2 -2 -2 -2 -2 -1 -1 -1 -1 -1 -1 -1 -1 -0 -0 -0 -0 -0 -0 -0 -0 0 0 -0 -0 -1 -1 -2 -2 -1 -1 -1 -1 -1 -1 -1 -1 -1 -1 -1 -1 -1 -1 -1 -1 -1 -1 -1 -1 -1 -1 -1 -1 -1 -1 -1 -1 -0 -0 -0 -0 -1 -1 -1 -0 -0 -0 -0 -0 -0 -0 -0 0 -0 -0 -1 -1 nan
nan -1 -1 -1 -1 -2 -2 -2 -2 -2 -1 -1 -1 -1 -1 -1 -1 -1 -0 -0 -0 -0 -0 -0 -0 -0 -0 -0 -0 -0 -0 -0 -1 -2 -2 -2 -2 -1 -1 -1 -1 -0 -0 -1 -0 -1 -1 -1 -1 -1 -1 -1 -1 -1 -1 -1 -1 -1 -0 -1 -1 -1 -1 -1 -1 -1 -0 -0 -1 -0 -0 -0 -0 -0 -0 -0 -0 -0 -0 -0 -0 -0 -0 -0 nan
nan -1 -1 -1 -1 -2 -2 -2 -1 -1 -1 -1 -1 -1 -1 -1 -0 -0 0 -0 -0 -0 -0 -0 -0 -0 -0 -0 -0 -0 -0 -0 -1 -2 -2 -2 -1 -1 -1 -1 -1 -0 -0 -0 -0 -0 -0 -0 -0 -0 -0 -0 -0 -0 -0 -0 -1 -1 -0 -0 -0 -0 -1 -1 -1 -0 -0 -0 -0 -0 -0 -0 -0 -0 -0 -0 -0 -0 -0 -0 -0 -0 -0 -0 nan
nan -1 -1 -1 -1 -1 -1 -1 -1 -1 -1 -1 -1 -0 -0 -0 0 0 0 -0 -0 -0 -0 -0 -0 -0 -0 -0 -0 -0 -0 -0 -1 -1 -1 -1 -1 -1 -1 -1 -1 -1 -1 -0 0 0 -0 -0 -0 -0 0 0 0 0 0 0 0 -0 -0 0 0 0 -0 -0 -0 -0 -0 -0 -0 -0 -0 -0 -0 -0 -0 -0 -0 -0 -0 -0 -0 -0 -0 -0 nan
nan -1 -1 -1 -1 -1 -1 -1 -1 -0 -0 -1 -1 -0 -0 0 0 0 -0 -0 -0 -0 -0 -0 -0 -1 -1 -1 -1 -1 -1 -1 -0 -0 0 -0 -0 -0 -1 -1 -1 -1 -1 -1 -0 -0 -0 -0 -0 -0 0 0 0 0 0 0 0 0 0 0 0 -0 -0 -0 -0 -0 -0 -0 -0 -0 -0 -0 -0 -0 -0 -0 -0 -0 -0 -0 -0 -0 -0 -0 nan
nan -1 -1 -1 -1 -1 -1 -1 -0 -0 -0 -1 -0 -0 -0 -0 0 -0 -0 -0 -1 -1 -0 -1 -1 -1 -1 -1 -1 -1 -1 -1 -0 -0 0 0 -1 -0 -1 -1 -1 -1 -1 -1 -1 -1 -0 -0 -0 -0 -0 -0 -0 0 0 0 -0 0 0 0 0 -0 -0 -0 -0 -0 -0 -0 -0 -0 -0 -0 -0 -0 -0 -0 -0 -0 -0 -1 -0 -1 -0 -1 nan
nan -1 -1 -1 -1 -1 -1 -1 -0 -1 -1 -0 -0 -0 -0 -0 -0 -0 -0 -1 -1 -1 -1 -1 -1 -1 -1 -1 -1 -1 -1 -0 -0 -0 -0 -0 -1 -0 -0 -1 -1 -1 -1 -1 -1 -1 -1 -0 -0 -0 -0 -0 -0 -0 0 -0 -0 -0 -0 -0 -0 0 0 0 -0 -0 -0 -1 -1 -1 -1 -1 -1 -1 -1 -1 -0 -0 -1 -1 -1 -1 -1 -1 nan
nan -1 -1 -1 -1 -1 -1 -1 -1 -1 -1 -0 -0 -0 -0 -0 -1 -1 -1 -1 -1 -1 -1 -1 -1 -1 -1 -1 -1 -1 -1 -1 -0 -0 -0 0 0 0 0 -0 -0 -0 -0 -1 -1 -1 -1 -1 -0 -0 -0 -0 -0 -1 -1 -0 -0 -0 -0 -0 -0 -0 -0 -0 0 0 -0 -1 -1 -1 -1 -1 -1 -1 -1 -1 -1 -1 -1 -1 -1 -1 -1 -1 nan
nan -1 -1 -1 -1 -1 -1 -1 -1 -0 -0 -0 -0 -0 -0 -1 -1 -1 -1 -1 -1 -1 -1 -1 -1 -1 -1 -1 -1 -1 -1 -1 -0 -0 0 1 1 1 0 0 0 0 -0 -0 -0 -1 -1 -1 -1 -0 -0 -0 -1 -1 -1 -1 -0 -0 -0 -0 -0 -0 -0 -0 -0 -0 -0 -0 -1 -1 -1 -1 -1 -1 -1 -1 -1 -0 -0 -1 -0 -0 -1 -1 nan
nan -1 -1 -1 -1 -1 -1 -0 -0 -0 -0 -0 -0 -0 -0 -1 -1 -1 -1 -2 -2 -1 -1 -1 -1 -1 -1 -1 -1 -0 -1 -1 -0 -0 -0 0 1 0 0 0 0 0 0 -0 -0 -1 -1 -0 -0 -0 -1 -1 -1 -1 -1 -1 -1 -0 -0 -0 -0 -0 -0 -1 -1 -1 -0 -0 -0 -0 -0 -0 -0 -0 -0 -1 -1 -0 -0 -0 -0 -0 -1 -1 nan
nan -1 -1 -1 -1 -1 -0 -0 -0 -0 -0 -0 -0 -1 -1 -1 -1 -1 -1 -1 -1 -1 -1 -1 -1 -1 -1 -0 -0 -0 -1 -1 -0 -0 -0 0 0 -0 -0 -0 -0 0 -0 -0 -0 -1 -1 -1 -1 -1 -1 -1 -1 -1 -0 -0 -0 -0 -0 -0 -0 -0 -0 -0 -0 -0 -0 -0 -0 -0 -0 -0 -0 -0 -0 -0 -1 -1 -0 -0 -0 -0 -1 -1 nan
nan -1 -1 -1 -1 -1 -0 -0 -0 -0 -0 -0 -1 -1 -1 -1 -1 -1 -1 -1 -1 -0 -1 -1 -1 -1 -0 -0 -1 -1 -1 -0 -0 -0 -0 -0 -0 -0 -0 -0 -0 -0 -0 -0 -0 -0 -0 -0 -1 -1 -1 -1 -1 -0 -0 -0 -0 -0 -0 -0 -0 -0 -0 -0 -0 -0 -0 -0 -0 -0 -0 -0 -0 -0 -0 -0 -0 -1 -0 -0 -0 -0 -1 -1 nan
nan -1 -1 -1 -1 -1 -0 -1 -1 -1 -1 -1 -1 -1 -1 -1 -1 -1 -0 -0 -0 -0 -1 -1 -0 -0 -0 -0 -1 -0 -0 -0 -0 -0 -0 -0 -1 -1 -1 -1 -1 -1 -1 -0 -0 0 0 -0 -0 -1 -1 -1 -0 -0 -0 -0 -0 -0 -1 -1 -0 -1 -1 -1 -1 -0 -0 -0 -0 -0 -0 -0 -0 0 -0 -0 -0 -0 -0 -0 -0 -0 -0 -1 nan
nan -1 -1 -1 -1 -1 -1 -1 -1 -1 -1 -1 -1 -1 -1 -1 -1 -0 -0 -0 -0 -0 -0 -0 -0 0 -0 -0 -0 -0 0 -0 0 -0 -1 -1 -1 -1 -1 -1 -1 -1 -1 -0 -0 0 -0 -0 -0 -0 -0 -0 -0 -0 -0 -0 -0 -0 -0 -1 -1 -1 -1 -0 -0 -0 -0 -0 -0 -0 -0 0 0 0 0 0 0 0 0 -0 0 0 0 -0 nan
nan -1 -1 -1 -1 -0 -0 -0 -1 -1 -1 -1 -1 -0 -0 -0 -0 0 -0 -0 0 0 0 0 0 0 -0 -0 -0 -0 -0 0 -0 -0 -1 -1 -1 -1 -1 -2 -2 -1 -1 -1 -1 -0 -1 -1 -0 -0 -0 -0 -0 -0 -0 -0 -0 -0 -0 -0 -1 -1 -0 -0 -0 -0 -0 -0 -0 -0 0 0 0 0 0 0 0 0 -0 0 0 0 0 0 nan
nan -1 -1 -0 -0 -0 -0 -0 -1 -0 -1 -0 -0 -0 -0 -0 0 -0 -0 0 0 0 0 0 0 0 0 0 0 0 0 -0 -0 -0 -1 -1 -1 -1 -1 -1 -1 -1 -1 -1 -1 -1 -1 -1 -1 -1 -1 -0 -0 -0 -0 -0 -0 -0 -0 -0 -0 -0 -0 -0 -0 -0 -0 0 0 0 0 0 0 0 0 0 0 0 0 0 0 0 0 0 nan
nan -1 -1 -0 -0 -0 -0 -0 -0 -0 -0 -0 -0 -0 -0 0 0 0 0 0 1 1 0 0 0 0 0 0 0 0 0 -0 -0 -0 -1 -1 -1 -1 -1 -0 -0 -0 -0 -1 -2 -2 -2 -2 -1 -1 -1 -0 -0 -0 -0 0 0 0 -0 0 0 0 0 0 0 0 0 0 1 0 0 -0 -0 0 0 -0 0 0 0 0 0 0 0 0 nan
nan -0 -0 -0 -0 -0 -0 -0 -0 -0 -0 -0 -0 -0 0 0 0 0 0 0 0 0 0 0 0 0 0 -0 -0 0 0 0 0 -0 -0 -0 -0 -0 -0 0 0 -0 -1 -2 -2 -2 -1 -1 -1 -0 -0 0 -0 -0 0 0 0 0 0 0 0 0 0 0 0 1 1 1 0 0 -0 -0 -0 -0 -0 -0 0 1 1 0 1 1 0 0 nan
nan -0 -0 -0 0 -0 -0 -1 -0 -0 -0 -0 -0 0 0 0 0 0 0 0 0 -0 -0 -0 -0 -0 -0 -0 -0 0 0 0 0 -0 -0 0 0 0 0 0 -0 -0 -1 -1 -1 0 0 0 0 0 1 1 1 1 0 0 0 1 1 1 1 1 1 1 1 1 0 0 0 0 0 0 0 -0 -0 0 0 0 0 0 1 0 0 0 nan
nan -0 0 0 0 -0 -1 -0 0 -0 -0 0 -0 0 0 0 0 0 -0 -0 -0 -1 -1 -0 -1 -1 -1 -1 -0 0 0 -0 -0 -0 0 0 0 0 0 0 0 -0 -0 0 1 1 1 1 1 1 1 1 1 1 1 1 1 1 1 1 1 1 1 1 1 1 0 0 0 0 0 0 0 0 0 0 0 0 0 1 1 0 0 1 nan
nan 0 0 0 -0 -0 0 0 -0 -0 -0 -0 -0 0 0 -0 -0 -0 -0 -0 -0 -1 -0 -0 -1 -1 -1 -0 0 0 -0 -1 -0 -0 0 0 0 0 -0 0 0 0 1 1 1 1 2 2 1 1 1 1 1 1 1 1 1 1 1 1 1 0 0 1 0 0 0 0 0 0 0 1 1 1 1 1 0 0 0 0 0 0 1 1 nan
nan 0 0 -0 -0 0 0 -0 -0 -0 0 0 0 0 -0 -0 -0 -0 -0 -0 -1 -1 -1 -1 -1 -1 -1 -0 0 -0 -1 -1 -1 -1 -1 -0 -0 -0 -0 0 0 0 1 1 1 2 2 1 1 2 1 1 1 1 1 1 1 1 1 1 0 0 1 0 0 0 0 0 0 0 1 0 1 1 1 0 0 0 1 0 0 0 1 1 nan
nan 0 -0 -0 0 0 -0 -0 -0 -0 -0 0 0 -0 -0 -0 -0 -1 -1 -1 -1 -1 -1 -1 -1 -1 -1 -0 -0 -0 -1 -1 -1 -1 -1 -1 -0 -0 -0 0 0 -0 0 1 1 2 1 1 1 1 1 1 1 1 1 1 1 1 1 0 0 0 1 0 0 0 0 0 0 0 0 0 0 0 0 0 0 1 1 0 0 1 1 0 nan
nan 0 0 0 0 -0 -1 -0 -0 -0 -0 0 -0 -0 -0 -0 -1 -1 -1 -1 -1 -0 -0 -1 -0 -0 -0 -0 -1 -1 -1 -1 -1 -0 0 0 0 -0 -0 0 0 -0 0 1 1 1 1 1 1 0 0 0 0 0 0 0 0 0 0 -0 -0 -0 -0 -0 -0 -0 0 0 0 0 0 0 0 0 0 1 1 1 1 0 1 1 0 0 nan
nan 0 0 0 -0 -0 -0 -0 -0 -0 -0 -0 -0 -0 -0 -0 -0 -0 -0 -0 -0 -0 -0 -0 -0 0 0 0 -0 -0 -0 0 0 1 1 1 0 0 0 0 0 0 1 1 1 0 0 0 -0 -0 -0 -1 -1 -1 -1 -1 -1 -0 -1 -1 -1 -0 -0 -0 -0 0 0 0 0 0 0 0 0 0 0 1 1 1 1 1 1 1 0 0 nan
nan 0 0 -0 -0 -1 -0 0 0 0 0 -0 -0 -0 -0 -0 -0 -0 0 0 0 0 0 0 0 0 1 1 1 1 1 1 1 1 1 0 1 1 1 1 0 1 1 1 1 0 0 -0 -0 -1 -1 -1 -1 -1 -1 -1 -1 -0 -0 -0 -0 -0 -0 0 0 0 0 0 0 0 0 0 0 0 0 0 1 1 1 1 1 1 1 0 nan
nan -0 -0 -0 -0 -0 -0 0 0 0 0 0 -0 -0 -0 -0 -0 -0 0 0 0 0 0 0 0 1 1 1 1 1 1 1 1 0 0 0 0 0 0 0 0 1 1 1 0 0 -0 -1 -1 -1 -1 -1 -0 -0 -0 -0 -0 0 0 0 0 0 0 0 1 0 0 0 1 0 0 1 1 1 1 1 0 0 1 1 1 1 0 1 nan
nan -0 -0 -0 -0 -0 0 0 0 0 0 0 0 0 -0 0 0 0 0 0 -0 0 0 0 0 1 0 0 0 0 0 0 0 0 0 0 0 -0 0 0 1 1 1 0 -0 -0 -1 -1 -0 -0 -0 -0 0 0 0 0 0 0 0 1 0 1 1 1 1 0 1 1 1 0 1 1 1 1 1 1 1 1 0 0 0 0 0 0 nan
nan -0 -0 -0 -0 -0 0 0 0 0 0 -0 -0 0 0 0 0 0 0 0 0 0 0 0 0 0 0 0 0 0 0 0 0 0 0 0 0 0 1 1 1 1 0 -0 -0 -0 -0 -0 0 0 0 0 0 0 1 1 1 0 0 1 1 1 1 1 0 1 1 1 1 1 1 1 0 0 1 1 1 1 0 0 0 -0 -0 0 nan
nan -0 -0 -0 -0 -0 0 0 0 0 0 0 0 0 0 0 0 0 0 0 0 -0 0 0 0 0 0 0 0 0 0 0 0 0 0 0 1 1 1 1 0 -0 -0 -0 -0 -0 0 0 0 1 1 1 1 1 1 1 1 1 0 1 1 1 1 1 1 1 1 0 1 1 1 1 1 1 1 1 1 0 0 0 0 0 0 0 nan
nan -0 -0 -0 -0 0 0 0 0 0 -0 0 0 0 0 0 0 0 0 0 0 0 0 0 0 0 1 0 0 0 0 -0 0 0 1 1 1 1 1 0 -0 -0 -0 -0 -0 0 0 0 1 1 1 1 1 1 1 1 1 1 1 1 1 1 1 1 1 1 1 1 1 1 1 1 1 1 1 1 1 0 0 0 1 1 1 1 nan
nan -0 -0 -0 -0 -0 -0 0 0 -0 -0 -0 0 0 0 0 0 0 0 0 0 0 1 1 1 1 1 1 1 1 0 0 1 1 1 1 1 0 -0 -0 -0 -0 -0 -0 0 0 0 1 1 1 1 1 1 1 1 1 1 1 1 1 1 1 1 1 1 1 1 1 1 1 1 1 1 1 1 0 0 0 0 0 0 1 1 1 nan
nan -0 -0 -0 -0 -0 -0 0 -0 -0 -0 0 0 0 0 0 0 0 0 0 0 0 1 1 1 1 1 0 1 1 1 1 1 1 1 0 0 0 -0 0 0 0 0 0 0 0 0 1 1 1 1 1 1 1 1 1 1 1 1 1 1 1 1 1 1 1 1 1 1 1 1 1 0 0 0 -0 -0 0 0 0 0 0 0 0 nan
nan -0 -0 -0 -0 -0 -0 0 -0 -0 0 0 0 0 0 0 0 0 0 0 0 0 0 0 0 0 0 0 1 1 1 1 0 0 0 -0 -0 0 0 0 0 0 0 1 1 0 0 0 0 0 0 0 0 1 1 1 1 1 1 1 1 1 1 1 1 1 1 1 1 1 0 0 0 0 0 0 0 0 0 0 -0 -0 -0 0 nan
nan -0 -0 -0 -0 -0 -0 -0 -0 0 0 0 0 0 0 0 0 0 0 0 0 0 0 0 0 -0 -0 -0 -0 -0 -0 -0 -0 -0 -0 -0 -0 0 0 0 0 1 1 1 1 1 1 0 0 0 0 0 0 0 0 1 1 1 1 1 1 1 1 1 1 1 1 1 1 1 0 0 0 1 1 1 1 0 0 0 0 0 0 0 nan
nan -0 -0 -0 -0 -0 -0 -0 -0 0 0 0 0 0 0 0 0 0 0 0 0 0 0 -0 -0 -0 -0 -0 -0 -0 -0 -0 -0 0 0 0 0 0 0 0 0 1 1 1 1 1 1 1 1 0 0 0 0 0 0 1 1 1 1 1 1 1 1 1 1 1 1 1 1 1 1 1 1 1 1 1 1 1 1 1 1 1 1 0 nan
nan -0 -0 -0 -0 -0 -0 -0 -0 0 0 0 0 0 0 0 0 0 0 0 0 0 0 0 0 0 0 0 -0 0 0 0 0 0 0 0 0 0 0 0 0 0 0 0 1 1 1 1 1 1 0 0 0 0 0 0 0 0 1 1 1 1 1 1 1 1 1 1 1 1 1 1 1 1 1 1 1 1 1 1 1 1 1 1 nan
nan -0 -0 -0 -0 -0 -0 -0 -0 0 0 0 0 0 0 0 0 0 0 0 0 0 0 0 0 0 0 0 0 0 0 1 1 1 1 1 1 1 1 1 0 0 0 0 0 0 1 1 1 1 1 1 1 1 0 0 0 0 0 1 1 1 1 1 1 1 0 1 1 1 1 1 1 1 1 1 1 1 1 1 0 0 0 0 nan
nan -0 -0 -0 -0 -0 -0 -0 -0 0 0 0 0 0 0 0 0 0 0 0 0 0 0 0 0 0 1 1 1 1 1 1 1 1 1 1 1 1 1 1 1 0 0 0 0 0 0 0 1 1 1 1 1 1 1 1 0 0 0 0 1 1 0 0 0 0 0 0 0 0 1 1 0 0 0 0 1 1 1 0 0 1 1 0 nan
nan -0 -0 -0 -0 -0 -0 -0 -0 0 0 0 0 0 0 0 0 0 0 0 0 0 0 0 0 0 0 1 1 1 1 1 1 0 0 0 0 0 0 0 1 1 0 0 0 0 0 0 0 1 1 1 1 1 1 1 1 1 1 0 0 0 0 0 0 0 0 0 0 0 0 0 0 0 0 0 0 1 0 0 0 0 0 0 nan
nan -0 -0 -0 -0 -0 -0 -0 -0 -0 0 0 0 0 0 0 0 0 0 0 0 0 0 0 0 0 0 0 0 1 1 1 1 1 0 0 0 0 1 1 1 1 1 1 0 0 0 0 0 1 1 1 1 1 1 1 1 1 1 1 1 1 1 1 0 1 1 1 0 -0 0 0 1 0 0 0 0 0 0 0 0 0 0 0 nan
nan -0 -0 -0 -0 -0 -0 -0 -0 0 0 0 0 0 0 0 0 0 0 0 0 0 0 0 0 0 0 0 0 0 1 1 0 0 0 1 1 1 1 1 1 1 1 1 1 1 1 1 0 0 1 1 1 1 1 1 1 1 1 1 1 1 0 0 0 0 0 1 0 0 0 0 1 1 1 0 0 0 0 1 1 0 0 0 nan
nan -0 -0 -0 -0 -0 -0 -0 0 0 0 0 0 0 0 0 0 0 0 0 0 0 0 0 0 0 0 0 0 0 0 1 1 1 0 0 1 1 1 1 1 1 1 1 1 1 1 1 1 0 1 1 1 1 1 1 1 1 1 1 0 0 0 0 0 -0 -0 0 0 0 0 0 0 0 1 0 0 0 0 0 1 1 1 0 nan
nan -0 -0 -0 -0 -0 -0 0 0 0 0 0 0 0 0 0 0 0 0 0 0 0 0 0 0 0 0 1 1 1 1 1 1 1 1 1 1 1 1 1 1 1 1 1 1 1 1 1 1 1 0 0 0 0 0 0 0 0 0 0 0 0 0 0 0 -0 -0 -0 0 0 0 0 0 0 0 0 -0 0 0 0 0 0 0 0 nan
nan -0 -0 -0 -0 -0 0 0 0 0 0 0 0 0 0 0 0 0 0 0 0 0 0 0 0 0 1 1 1 1 1 1 1 1 1 1 1 1 1 1 1 1 1 1 1 1 1 1 1 1 1 1 0 0 0 0 0 1 1 0 0 0 0 0 0 0 -0 -0 0 0 0 0 0 0 0 0 -0 -0 -0 -0 -0 -0 -0 0 nan
nan nan nan nan nan nan nan nan nan nan nan nan nan nan nan nan nan nan nan nan nan nan nan nan nan nan nan nan nan nan nan nan nan nan nan nan nan nan nan nan nan nan nan nan nan nan nan nan nan nan nan nan nan nan nan nan nan nan nan nan nan nan nan nan nan nan nan nan nan nan nan nan nan nan nan nan nan nan nan nan nan nan nan nan nan
Wind_Speed
28 27 27 27 27 27 27 27 27 27 28 28 28 28 27 27 27 26 27 27 27 27 26 25 25 24 24 24 23 24 24 25 26 27 26 26 25 25 26 26 25 24 23 22 21 21 21 20 20 19 19 19 18 18 18 18 18 16 15 15 13 12 14 15 18 22 20 16 17 18 16 15 15 16 19 23 25 25 24 24 23 23 23 23 23
27 27 27 27 27 27 27 27 27 27 27 27 27 27 27 27 27 26 26 26 26 26 25 24 23 24 24 23 23 24 24 25 26 27 28 27 26 27 27 27 26 25 24 23 23 22 21 21 20 20 19 19 18 18 18 18 17 16 15 15 14 14 15 17 18 20 21 19 18 18 16 15 15 16 17 19 20 22 24 25 23 22 23 23 22
26 27 27 27 27 27 27 27 27 27 27 27 27 26 26 26 26 26 26 25 24 24 24 23 23 23 23 23 24 24 25 26 26 27 29 29 29 29 28 28 27 26 25 24 23 22 22 21 21 21 20 19 19 18 17 17 16 15 15 15 16 18 18 18 18 19 21 20 18 18 17 15 15 15 15 15 16 18 22 23 24 23 23 22 21
27 27 27 27 27 27 27 27 27 27 27 27 26 26 26 26 26 26 25 24 23 23 23 23 23 23 23 24 24 24 25 26 27 28 29 30 30 30 29 28 27 25 25 24 24 23 23 22 21 21 21 19 19 18 17 16 15 15 16 17 18 20 20 19 18 17 18 19 18 17 17 16 16 15 14 14 14 17 19 20 23 24 22 21 19
27 27 27 27 26 26 27 27 26 27 26 26 26 26 26 26 25 25 24 24 24 24 24 25 25 25 25 24 24 24 25 26 26 27 29 30 30 30 29 28 27 26 25 25 25 24 24 23 22 22 21 20 19 19 18 17 17 17 18 19 19 21 21 19 18 18 18 18 18 17 16 15 15 13 13 14 15 16 17 17 19 22 22 21 19
26 27 26 26 26 26 26 26 26 27 26 26 27 26 26 26 25 24 24 24 24 24 25 25 25 25 25 24 24 24 24 25 25 28 30 31 31 30 29 27 26 26 25 25 25 24 24 23 22 21 21 20 19 19 20 20 20 20 20 20 20 20 20 19 18 18 17 17 16 16 15 14 15 14 13 15 17 18 17 17 17 19 20 19 18
25 26 26 26 26 26 26 26 26 26 26 26 26 26 26 25 25 25 24 24 25 25 25 25 25 25 25 24 24 24 24 24 25 28 30 31 31 30 29 27 26 26 25 25 24 24 23 22 22 21 20 19 18 19 20 21 21 21 20 20 19 19 20 19 18 17 16 15 15 15 14 13 14 15 15 16 17 16 17 18 18 19 19 18 19
25 25 25 25 25 26 26 26 26 26 26 26 26 26 26 25 25 24 24 24 25 26 26 25 25 24 24 25 24 23 23 22 24 28 30 31 31 30 29 28 28 26 25 25 24 23 23 22 21 20 18 17 16 17 18 20 21 20 18 17 18 18 19 19 18 16 14 14 14 13 13 13 13 14 15 15 15 15 16 18 19 19 18 18 18
24 24 24 25 25 25 25 25 25 25 26 27 26 26 25 24 24 24 24 24 25 25 25 25 25 24 24 24 24 23 23 22 22 24 29 32 31 30 30 29 28 27 26 25 24 23 23 23 22 21 18 16 15 15 17 17 17 18 19 17 17 17 17 17 16 14 13 13 14 13 13 13 13 14 16 15 15 16 17 18 18 18 18 18 16
23 23 24 24 24 24 25 25 26 26 26 26 26 24 24 23 23 23 23 24 24 24 24 24 25 25 25 25 25 24 24 24 21 21 24 30 31 29 30 29 28 28 27 26 25 24 24 24 23 21 20 18 16 17 17 14 13 16 17 15 14 14 15 16 16 14 13 13 13 13 14 14 14 15 17 16 15 16 17 18 18 18 17 18 16
22 23 23 24 24 24 26 26 26 26 26 25 25 24 23 23 22 23 23 24 24 24 25 25 25 26 26 26 26 25 25 25 23 22 22 27 30 29 29 29 28 28 27 27 26 25 25 25 24 23 22 20 19 19 16 13 13 15 13 10 10 12 15 17 17 16 14 14 14 14 15 16 16 16 17 16 16 16 18 18 18 18 18 18 18
22 22 22 23 24 25 26 26 25 25 25 24 24 23 23 23 23 23 24 24 25 24 25 25 26 26 26 26 26 26 26 25 25 24 23 24 28 29 28 28 27 26 26 25 26 26 26 26 25 24 23 21 20 20 17 13 11 12 12 9 9 11 13 16 17 17 15 14 15 15 15 16 17 17 17 18 18 19 20 18 17 19 18 17 18
21 22 23 24 25 25 25 25 24 24 24 24 23 23 23 23 24 24 24 24 24 24 25 26 26 27 27 28 27 27 26 26 26 26 24 24 27 27 27 26 26 25 25 25 25 26 26 26 25 24 22 21 20 20 18 14 11 11 10 10 10 11 12 14 14 15 15 15 15 15 16 17 17 17 18 20 23 23 22 21 21 20 19 18 19
21 22 23 24 24 24 24 24 24 24 24 24 23 23 23 24 24 24 24 24 25 26 26 26 27 27 28 28 27 27 27 27 27 26 25 25 26 26 25 25 24 24 25 25 25 26 25 25 24 22 21 20 20 19 19 17 14 12 11 11 12 13 14 14 14 16 17 17 15 15 17 18 18 18 19 22 24 23 23 25 23 22 22 21 20
21 22 22 23 23 23 23 24 24 24 24 24 23 23 23 23 23 23 24 25 26 27 26 26 27 27 27 26 26 26 27 27 27 27 26 26 26 26 25 25 24 24 24 24 25 25 24 23 22 21 20 19 19 18 19 18 16 13 12 12 12 13 13 14 16 17 18 17 16 17 20 20 19 19 21 24 24 23 24 23 20 21 23 21 17
21 21 22 23 23 23 23 24 24 24 23 23 23 23 23 23 23 23 24 25 26 25 26 26 26 26 26 26 26 26 26 27 27 27 26 26 25 25 25 25 25 24 24 24 24 23 23 22 21 21 20 19 19 18 18 18 16 15 14 13 13 12 12 14 16 17 18 17 17 19 20 21 20 20 21 23 24 24 23 20 18 19 21 18 14
20 21 22 23 23 23 24 24 24 23 23 23 22 22 23 22 22 23 24 24 24 25 25 25 25 25 25 26 26 26 27 27 27 27 26 25 25 25 25 25 25 25 25 25 24 23 22 22 22 22 21 21 20 19 19 18 17 16 15 14 14 13 14 16 17 17 18 18 19 20 21 21 20 19 20 21 21 22 21 19 19 19 18 15 14
20 21 22 23 23 23 23 23 23 22 22 22 22 22 22 22 22 23 23 23 24 24 24 24 24 24 25 25 26 26 27 28 27 27 26 26 26 27 27 26 26 26 26 26 24 23 22 22 23 23 23 22 21 20 20 20 18 18 17 16 15 16 18 20 21 20 21 21 22 22 21 20 19 17 17 17 17 19 19 18 19 18 16 15 15
20 21 22 22 23 23 23 23 22 22 22 22 22 22 22 21 22 22 22 23 22 22 22 22 23 23 24 25 26 26 27 28 27 27 27 28 28 29 29 28 28 28 27 27 26 25 25 25 25 25 24 23 22 21 21 20 19 19 18 18 18 19 21 22 23 23 24 24 24 24 22 19 16 15 14 14 15 16 17 17 18 17 17 17 15
20 21 22 22 22 22 22 22 22 22 22 22 22 22 21 21 21 21 22 22 21 21 21 21 22 23 24 25 26 27 28 28 27 28 28 29 30 29 30 30 30 29 29 28 28 28 28 28 27 27 26 25 23 22 21 20 19 18 18 19 21 22 22 21 22 22 24 25 25 24 22 20 18 17 16 16 16 16 17 17 17 17 18 18 16
20 20 21 21 21 21 21 21 22 22 22 23 22 22 21 20 20 21 21 20 19 19 20 20 21 22 23 25 26 27 28 28 28 29 29 30 30 30 30 30 30 30 30 30 31 31 30 30 29 28 27 25 24 23 21 20 19 18 18 19 19 20 20 21 21 21 23 24 24 23 23 22 21 20 19 19 18 18 18 18 18 17 17 18 18
19 19 20 20 20 21 21 22 22 22 22 21 20 20 20 20 20 21 20 19 18 19 19 20 21 22 24 26 27 28 28 28 28 29 29 30 30 30 31 31 30 31 31 32 32 31 30 29 28 27 27 25 24 23 21 20 19 18 18 18 17 18 18 19 20 21 22 22 23 23 24 24 24 23 22 22 21 20 18 18 18 18 18 18 17
18 19 19 19 20 21 21 22 21 21 21 20 19 19 19 19 19 19 19 19 19 20 21 21 22 23 25 27 28 28 28 28 28 29 30 30 31 31 31 31 31 31 32 32 31 30 29 28 28 27 26 25 23 23 21 20 20 19 19 18 18 18 18 18 19 21 22 22 23 24 24 24 25 25 24 24 23 21 19 19 18 18 18 18 17
17 18 18 19 21 21 21 21 21 20 20 19 19 19 19 19 19 19 19 20 21 22 22 22 23 25 27 28 29 29 29 29 30 31 31 31 31 31 31 30 31 31 30 30 30 29 29 28 27 26 25 24 23 22 22 21 21 21 20 19 19 19 19 20 21 22 22 23 24 25 25 25 25 25 25 24 24 23 22 20 19 18 18 18 18
17 17 18 19 20 20 20 20 20 20 20 20 19 19 19 19 19 20 20 21 21 23 23 24 25 26 28 29 29 29 30 31 31 31 31 31 31 30 30 29 29 29 30 29 29 28 28 27 26 26 26 25 25 24 23 23 23 22 21 20 20 21 22 22 23 23 24 25 25 26 25 25 24 25 25 24 24 24 24 22 20 19 19 18 17
17 17 18 19 19 18 19 19 20 20 19 19 19 19 19 19 20 20 21 21 22 23 23 24 26 27 28 29 29 30 31 31 32 32 31 31 30 29 29 28 28 29 29 28 27 26 26 25 25 25 25 26 26 26 25 24 23 22 22 22 23 24 24 25 25 26 27 26 26 26 26 26 25 24 24 24 24 24 24 23 22 21 20 19 17
17 17 17 17 18 18 18 18 18 18 18 18 18 18 19 20 20 20 21 21 22 23 23 25 26 27 28 29 29 30 31 32 32 32 32 32 30 29 28 28 28 29 29 27 26 25 25 25 25 25 24 25 25 26 25 25 25 25 25 25 26 26 26 26 27 27 27 27 27 27 27 26 26 25 24 24 25 25 24 24 24 24 23 22 21
17 17 17 17 17 17 17 17 18 18 18 18 18 18 19 20 20 20 21 22 22 23 24 25 26 27 28 29 29 30 30 31 32 32 32 31 30 29 28 28 29 29 28 27 26 25 26 26 26 25 25 26 26 26 27 27 27 28 28 28 28 28 27 27 27 28 28 28 28 28 28 28 28 27 27 27 27 26 26 26 26 26 26 25 24
17 16 16 16 16 16 16 16 17 18 18 19 19 19 19 19 20 20 21 21 22 23 23 25 25 26 27 28 29 29 30 30 30 29 29 28 28 28 28 28 27 28 27 26 26 26 27 27 27 28 28 29 29 30 29 29 29 29 29 29 29 29 29 29 29 29 29 29 29 30 30 30 30 29 29 28 28 28 28 29 29 30 29 28 27
15 15 15 15 14 15 15 16 16 17 17 18 19 19 19 19 19 19 20 20 21 22 23 24 25 25 25 25 26 27 27 27 27 26 26 26 25 26 26 25 25 25 25 25 26 27 28 29 29 30 31 31 32 32 31 31 31 31 30 31 31 31 31 31 31 30 30 30 30 30 31 30 30 31 31 30 30 29 30 31 32 32 32 32 30
14 14 14 13 13 14 15 15 16 16 16 16 17 18 18 19 19 19 19 19 20 21 22 23 24 24 24 24 23 23 24 24 24 24 24 25 25 25 24 23 23 24 24 25 27 28 29 29 30 31 31 31 31 31 31 31 31 31 31 31 31 31 32 31 31 30 30 31 31 31 31 31 31 32 32 32 31 31 32 32 33 34 34 34 33
13 13 12 12 13 14 14 14 14 15 15 15 15 16 16 17 18 19 20 20 20 21 21 22 22 23 23 23 23 23 23 23 23 23 23 23 23 24 23 22 23 23 23 25 27 28 28 29 29 29 30 30 30 30 30 30 30 31 31 31 31 31 31 30 30 30 31 31 31 31 31 31 32 32 32 33 33 33 33 34 34 35 35 35 34
11 11 11 12 12 13 13 13 14 14 15 15 15 16 16 16 16 17 18 18 19 20 20 21 21 21 22 22 22 22 22 23 23 23 23 22 22 22 22 21 22 23 24 25 26 27 27 28 28 28 29 29 29 29 30 30 30 31 31 31 31 30 29 29 30 31 30 30 31 31 32 32 33 33 33 33 34 34 34 35 35 36 36 36 34
10 10 10 11 12 12 12 13 14 14 15 15 16 16 16 16 16 16 15 16 17 18 19 19 19 20 20 20 21 22 22 23 23 22 22 21 21 20 19 19 21 23 24 25 26 26 27 27 27 28 28 28 29 29 29 30 30 30 30 30 30 29 30 30 31 31 30 30 31 31 32 32 33 33 33 34 34 35 35 35 36 36 36 37 35
9 9 10 11 11 12 12 13 13 14 14 15 16 16 16 16 16 16 16 16 16 16 17 18 18 19 19 20 21 21 22 22 22 21 21 20 20 19 19 19 21 22 23 24 25 26 26 27 27 27 27 28 28 29 29 29 29 30 30 30 30 30 30 30 30 30 30 31 31 31 31 32 33 33 34 34 34 35 35 35 36 36 36 36 35
9 9 10 11 11 12 12 12 13 13 14 15 15 16 16 16 16 15 16 16 16 16 16 15 16 17 18 19 20 20 21 21 21 21 20 20 20 20 20 21 22 23 24 25 25 26 26 26 27 27 27 28 28 28 29 29 29 29 29 30 30 30 30 30 30 30 30 30 31 31 31 32 33 33 34 34 34 35 35 35 35 35 35 35 35
9 9 10 11 11 11 12 12 12 12 13 14 14 14 14 15 15 15 15 15 15 15 15 15 15 15 16 18 18 18 19 19 19 19 19 19 19 20 21 21 22 23 24 25 25 25 26 26 26 27 27 28 28 28 28 28 29 29 29 29 29 30 30 30 30 30 30 30 31 31 32 32 33 33 34 34 34 34 34 34 33 33 33 33 34
9 9 10 10 11 11 11 11 11 11 12 12 12 13 13 13 13 14 14 14 15 15 16 16 16 16 17 18 18 17 18 17 17 18 19 19 19 20 20 21 21 22 23 24 24 25 26 26 27 27 27 28 28 28 28 28 29 29 29 29 29 29 30 30 30 30 30 30 30 31 31 32 32 32 33 33 33 33 33 33 33 33 33 33 34
9 9 10 10 10 10 10 10 10 11 11 11 11 11 11 12 12 13 13 14 15 15 16 17 18 19 19 19 19 19 20 20 20 20 20 20 20 21 21 21 21 22 22 23 24 24 25 26 27 27 27 28 28 28 29 29 29 29 29 30 30 30 29 30 29 29 29 29 30 30 31 31 31 32 32 32 32 32 32 32 32 33 34 34 34
9 9 10 10 10 10 9 9 9 9 10 10 10 10 10 11 11 12 13 14 15 16 17 18 19 20 21 21 21 22 22 22 22 21 21 21 21 21 21 22 22 22 23 23 23 24 25 26 26 27 27 28 28 28 29 29 29 29 29 30 30 30 29 30 30 29 29 29 29 30 30 31 31 32 32 32 31 31 31 32 32 32 33 33 33
9 9 9 9 9 9 8 8 8 8 8 9 9 9 10 10 10 11 12 13 14 15 16 18 18 19 20 21 21 22 22 21 21 21 21 21 21 21 21 22 22 23 23 24 24 24 24 25 26 26 27 27 28 28 29 29 29 30 30 30 30 30 30 30 30 30 30 30 30 30 30 31 31 31 31 31 31 31 31 32 32 32 32 33 33
9 9 9 9 8 8 7 7 7 7 7 8 8 8 9 9 10 11 12 12 13 14 15 16 17 18 18 19 20 20 20 20 20 20 20 20 21 21 21 22 23 23 24 24 24 24 24 25 25 26 27 27 28 28 29 30 30 30 31 31 31 31 31 31 30 30 30 30 30 30 30 30 31 31 32 32 32 32 32 32 32 33 33 34 34
9 9 9 8 7 7 6 6 6 6 7 7 7 7 8 9 10 11 12 12 13 13 14 14 15 16 17 17 18 18 19 19 20 20 20 20 21 21 21 22 23 23 24 24 24 25 25 25 25 26 26 27 27 28 29 30 30 31 31 31 31 31 31 31 30 30 30 30 30 30 30 31 31 32 32 32 32 32 32 32 32 32 33 33 34
9 8 8 7 6 6 5 5 5 5 5 6 6 7 8 9 10 10 11 12 13 13 14 14 15 15 16 16 17 18 18 19 19 20 20 20 20 21 21 22 22 23 24 25 25 25 26 26 25 25 26 26 27 28 28 29 30 31 31 31 31 31 31 30 30 30 30 30 30 30 30 31 31 32 32 32 32 32 31 31 31 31 32 33 33
8 8 7 6 6 5 4 4 4 4 5 5 6 7 7 8 9 10 10 11 12 13 13 14 15 15 16 16 17 17 18 18 19 19 20 20 20 21 21 22 22 23 24 25 26 26 27 27 27 27 27 27 28 28 29 29 29 30 30 31 31 31 30 30 30 29 30 30 30 30 30 31 31 32 32 32 32 32 31 31 31 32 32 33 33
8 7 7 6 5 4 3 3 3 4 4 5 5 6 7 8 9 9 10 11 12 12 13 14 15 16 16 17 17 18 18 18 19 19 20 20 21 21 22 22 23 23 24 25 26 27 27 28 28 28 28 29 29 29 30 29 29 29 30 30 30 30 30 30 29 29 30 30 30 30 30 31 31 31 31 31 31 30 30 30 31 31 31 32 32
7 7 6 5 4 3 2 2 2 3 3 4 5 6 7 8 9 9 10 11 12 13 14 14 15 16 16 17 18 18 18 19 19 20 20 21 21 22 22 23 23 23 24 24 26 27 27 28 29 29 30 30 30 30 30 30 29 29 29 29 29 30 30 30 30 30 30 30 30 30 31 31 32 32 32 31 31 31 30 30 30 30 30 31 31
7 7 5 4 3 2 1 1 2 2 3 4 5 6 7 8 9 10 11 12 12 13 14 15 15 16 16 17 18 18 19 19 20 20 21 21 22 22 22 23 23 24 24 24 25 26 27 28 29 30 30 30 30 30 30 30 30 29 29 29 29 30 30 30 30 30 30 30 30 31 32 32 32 32 32 31 31 31 31 31 31 31 31 31 31
7 6 5 3 2 1 0 1 2 3 4 5 6 7 8 9 9 10 11 12 13 14 15 15 16 17 17 18 18 19 19 20 20 20 21 22 22 23 23 23 24 24 25 25 26 27 27 28 29 29 30 30 30 30 30 30 30 30 30 30 30 30 30 31 31 31 32 32 32 32 32 33 32 32 31 31 31 31 31 31 31 31 31 31 32
6 5 4 3 2 1 1 1 2 3 5 6 7 8 8 9 10 11 12 12 13 14 15 16 16 17 18 18 19 19 20 20 21 21 21 22 23 23 24 25 25 25 26 25 25 26 26 27 27 28 28 29 29 30 30 31 31 31 31 31 31 31 31 31 32 32 33 33 34 33 33 33 33 32 32 32 32 32 32 32 32 32 33 32 32
6 5 3 2 1 1 2 2 3 4 5 6 7 8 9 10 11 12 13 13 14 14 15 16 16 17 18 19 19 20 20 21 21 22 22 23 24 25 25 26 26 26 26 25 25 25 25 26 26 27 28 28 29 29 30 31 31 31 32 32 33 33 33 33 33 33 34 34 35 35 34 34 34 34 33 33 33 33 33 33 33 33 33 33 33
Wind_Direction
2 2 2 2 1 2 2 2 2 2 2 2 3 3 2 3 4 4 4 4 3 2 4 4 3 2 0 0 360 357 355 356 355 353 355 360 1 360 358 358 357 355 352 351 349 346 344 342 340 337 334 333 332 329 327 324 322 322 319 319 322 324 321 316 309 307 311 315 311 312 313 312 315 317 318 320 322 323 321 319 318 315 312 307 301
5 5 5 5 5 5 5 4 3 3 2 2 3 3 3 3 4 4 4 5 4 3 5 6 4 2 0 359 358 356 355 356 356 353 354 1 4 2 1 359 358 357 355 353 351 349 347 345 343 341 339 339 337 335 333 331 330 327 322 321 320 319 317 317 316 311 311 315 315 312 312 311 314 317 318 319 321 322 324 323 322 319 317 315 309
7 8 8 8 8 6 5 5 4 3 3 2 3 3 4 5 6 7 7 7 7 6 6 8 7 5 2 359 358 356 354 355 357 354 355 3 5 4 3 1 359 358 356 355 353 352 350 349 347 345 344 345 342 341 340 336 335 333 326 324 321 319 319 320 319 315 311 312 315 313 311 309 311 315 317 316 316 319 322 324 324 322 320 317 311
10 11 10 9 7 6 5 4 3 3 3 3 4 5 8 9 10 11 10 10 11 11 11 11 11 9 6 2 0 356 353 354 356 354 358 4 5 4 3 1 360 360 357 356 355 354 354 354 353 351 350 351 348 346 346 341 339 336 329 326 324 321 322 322 321 317 313 311 312 312 309 307 309 313 316 317 316 318 319 319 321 324 323 320 313
12 11 9 7 5 5 5 4 3 4 5 6 7 9 12 13 13 13 13 14 15 15 14 13 12 12 10 6 4 0 354 353 355 356 359 4 5 3 2 0 360 360 358 358 358 357 357 357 356 356 354 355 355 353 351 349 346 343 338 334 331 327 325 325 323 320 314 310 312 314 312 310 310 313 318 321 319 318 319 318 320 324 327 325 319
11 9 7 6 5 5 6 6 6 7 8 10 11 13 14 15 16 17 16 16 17 16 15 14 12 12 12 9 7 4 359 355 356 359 0 2 3 2 360 359 0 360 359 360 359 358 359 358 357 359 358 358 0 357 354 354 352 349 347 343 340 337 335 333 333 329 320 313 311 315 317 317 316 317 320 323 322 321 322 320 321 325 328 326 322
10 8 7 6 7 7 8 10 10 10 12 13 14 15 16 17 18 18 18 17 16 16 15 15 13 11 11 11 9 7 5 358 358 2 0 359 0 359 357 358 0 1 0 360 360 358 358 358 358 358 358 358 358 355 353 351 348 347 348 345 342 342 343 347 351 344 330 318 315 317 320 321 320 320 322 324 324 324 326 326 325 328 328 325 324
9 8 8 8 10 11 12 13 13 13 14 16 17 17 17 18 18 17 17 17 16 15 14 13 13 12 10 10 9 9 8 4 4 5 360 355 357 357 356 357 358 360 1 360 359 359 358 359 360 358 357 355 350 347 346 343 341 341 345 347 346 345 348 355 357 347 332 325 324 323 323 324 326 327 328 330 330 331 334 332 328 328 328 325 325
9 10 10 11 13 15 16 16 16 16 17 17 18 18 17 17 17 16 16 16 16 14 13 11 11 11 11 11 10 9 10 10 13 14 1 350 352 355 355 356 356 357 360 359 358 359 359 360 0 359 356 350 340 336 334 335 340 344 344 346 347 346 353 1 358 343 333 333 332 330 332 330 330 332 331 330 330 330 333 333 327 326 327 325 327
11 11 13 15 17 18 19 19 18 18 18 18 17 17 16 15 14 15 16 16 15 14 12 11 10 10 11 11 11 10 10 10 13 21 8 348 347 355 355 353 355 355 356 357 357 358 360 359 359 358 356 352 344 339 338 342 353 354 348 348 352 355 3 8 1 348 339 337 335 335 333 329 327 330 328 325 326 328 330 331 327 326 327 325 326
13 15 17 19 20 21 22 22 19 18 18 18 16 15 14 13 13 14 15 15 15 14 12 11 10 11 11 10 10 10 11 10 8 17 13 351 346 355 355 352 355 355 354 355 355 357 358 359 358 356 357 356 349 345 349 358 7 3 356 356 3 6 9 10 7 359 347 336 334 334 331 329 330 330 328 325 327 329 329 329 327 326 326 323 321
17 19 21 22 23 24 23 21 19 18 17 16 16 13 12 12 12 13 14 15 15 13 13 12 11 11 10 9 10 9 9 10 7 9 12 357 349 354 355 353 356 355 354 355 355 356 358 357 357 357 357 356 350 350 358 4 6 7 2 359 4 6 6 6 4 1 353 343 340 338 336 335 333 333 332 327 323 325 326 327 327 325 324 320 315
21 23 24 25 25 25 23 21 19 19 17 15 14 13 12 11 11 12 13 14 15 14 14 13 11 11 10 8 9 8 7 9 7 6 8 1 353 354 356 356 357 356 356 357 357 358 358 357 357 357 356 356 353 355 1 358 355 2 1 355 354 354 354 354 355 359 358 354 348 343 342 342 338 337 333 321 318 323 324 324 325 323 320 316 313
25 27 27 26 26 24 23 22 19 18 17 14 13 12 12 12 11 12 12 12 13 14 14 13 11 11 10 8 7 7 7 8 6 5 6 2 355 356 358 359 0 0 359 359 359 359 358 357 358 357 357 360 360 0 2 356 350 352 354 353 350 348 349 349 352 358 359 358 354 345 341 340 335 332 326 317 318 323 321 323 325 322 319 318 316
27 28 28 27 26 24 23 22 20 17 15 13 12 11 12 12 12 13 14 13 13 13 12 12 11 10 9 7 7 7 8 8 6 4 5 2 357 358 0 1 3 3 2 0 360 359 358 357 358 359 1 5 6 4 1 356 352 353 356 357 355 354 356 357 359 359 355 354 350 339 333 330 327 323 318 315 318 319 318 322 321 315 316 318 315
28 28 27 27 26 25 23 21 19 17 14 12 11 11 12 13 13 15 15 14 13 12 11 11 11 9 9 8 8 9 9 8 6 5 5 3 1 2 4 4 4 4 3 2 2 1 359 359 1 3 5 8 8 7 2 357 358 0 2 3 0 359 360 1 360 355 349 347 343 334 328 325 321 317 315 315 317 318 319 320 316 312 316 319 313
29 28 27 27 26 24 23 20 18 16 13 11 12 13 14 14 15 16 16 14 13 12 11 11 10 9 9 9 11 11 10 10 8 6 7 6 5 6 8 7 5 5 6 5 5 5 4 5 5 5 7 9 7 6 3 1 2 2 2 2 360 357 357 358 356 352 347 345 339 333 329 326 322 319 317 317 318 319 322 324 322 322 324 322 316
29 28 27 27 25 23 21 19 17 14 13 13 14 17 17 15 17 17 16 15 14 13 12 12 11 11 11 12 14 13 11 11 9 8 9 10 9 8 8 8 7 7 8 8 8 8 8 10 9 8 9 9 7 5 3 2 3 0 358 357 357 358 357 353 351 349 347 343 339 337 336 333 329 325 322 323 324 325 328 329 329 329 326 319 316
30 29 27 26 23 22 20 17 16 14 14 15 17 18 19 18 17 17 16 17 16 15 14 14 13 14 14 15 16 15 13 12 11 11 13 12 11 10 9 10 10 10 9 9 9 11 11 11 11 9 9 9 7 5 3 2 2 359 355 354 356 359 356 351 348 346 344 343 342 343 345 344 343 342 339 338 337 335 336 336 334 333 327 322 320
31 28 26 24 21 19 19 17 16 16 16 17 18 19 20 19 18 18 19 19 18 17 18 17 15 17 19 19 18 16 15 15 14 15 16 14 14 13 13 12 12 11 11 10 10 12 12 11 10 9 9 8 6 5 4 3 3 0 358 358 357 355 352 347 345 343 342 343 345 347 350 355 0 1 358 356 353 349 347 344 342 340 333 329 328
31 27 24 22 19 18 18 18 18 18 18 19 19 19 19 18 19 21 22 21 20 21 23 21 20 21 23 22 21 18 17 17 17 18 18 18 17 17 16 15 14 12 13 13 12 12 11 9 8 8 7 5 4 4 4 4 3 3 4 2 357 350 346 343 343 343 344 347 349 352 357 3 7 8 8 7 5 359 355 350 347 345 340 335 333
29 25 22 19 17 19 21 20 20 21 21 21 21 21 20 19 20 22 22 21 23 25 26 25 25 26 26 24 22 21 20 20 20 21 21 21 21 20 19 18 16 15 15 15 14 12 10 9 8 7 6 4 3 4 3 3 4 6 7 3 355 350 347 346 348 351 353 355 358 2 6 8 9 10 10 9 7 2 358 353 349 344 340 337 333
27 22 19 18 17 20 24 24 23 24 25 25 25 24 23 23 23 23 22 22 25 29 29 29 28 28 27 25 22 22 23 23 24 25 24 24 24 23 22 20 19 19 18 18 16 13 12 11 10 8 7 6 6 5 5 4 5 6 7 4 360 358 359 0 2 4 5 7 9 11 11 9 7 7 6 5 3 2 359 354 349 344 340 337 334
26 21 18 19 20 21 24 26 26 27 28 29 28 27 26 25 26 26 24 25 28 30 31 32 31 29 27 25 23 22 23 25 26 27 27 26 26 26 25 24 23 22 22 22 20 18 17 15 14 12 12 13 13 13 12 11 12 12 11 10 10 11 12 13 13 13 13 14 14 13 12 9 6 5 3 1 0 1 1 357 351 349 344 339 336
25 22 21 23 23 22 23 27 29 29 30 31 30 29 29 28 28 29 29 29 31 31 32 33 32 30 27 24 22 21 23 25 26 27 28 28 28 28 28 28 28 27 27 27 25 24 23 22 21 21 21 23 25 26 25 25 24 23 22 21 21 21 20 19 19 19 18 17 15 13 12 10 9 6 3 2 2 2 1 358 355 354 351 345 338
27 25 24 25 28 28 27 29 31 31 30 31 31 29 29 30 31 31 32 34 34 33 32 32 32 30 27 24 21 20 22 24 25 26 27 28 29 29 30 32 31 31 31 30 28 27 28 29 30 30 30 31 33 34 35 34 33 32 30 29 28 26 23 22 21 20 19 17 15 13 12 11 11 10 7 5 6 4 1 360 0 359 356 352 347
31 29 27 28 31 33 31 30 33 35 33 32 32 31 30 31 32 33 34 36 36 35 33 31 29 27 26 24 22 21 22 22 23 24 25 26 27 27 28 30 31 32 31 29 28 29 31 34 35 36 36 37 37 37 37 36 35 34 32 31 30 27 24 23 21 20 18 16 15 14 13 12 13 13 11 10 9 7 5 4 5 4 1 359 357
34 32 31 31 33 35 34 32 33 35 36 36 35 34 33 32 33 33 33 33 34 34 33 31 28 24 22 21 21 21 22 22 21 21 20 21 22 24 25 27 28 28 28 26 27 30 33 35 36 37 38 39 39 38 37 35 33 32 31 30 29 26 24 24 22 20 17 16 16 15 14 14 14 14 14 14 11 10 10 10 10 10 8 6 3
35 34 35 34 34 36 39 38 35 33 33 34 35 35 35 35 34 34 33 32 31 30 29 30 28 25 21 19 18 19 21 21 20 19 18 18 19 21 22 23 24 24 23 22 25 29 31 32 33 33 34 34 34 33 33 32 31 30 28 27 26 24 22 21 20 18 17 16 16 15 14 14 14 13 14 14 14 13 13 13 13 13 12 11 10
37 38 38 37 37 39 41 43 41 37 34 32 32 34 36 37 38 37 34 32 31 29 28 27 26 24 23 21 19 18 20 21 19 18 18 19 21 22 21 20 22 23 21 20 24 28 28 28 29 29 29 29 29 28 28 27 26 25 24 23 22 20 19 19 17 16 16 16 15 15 15 14 14 13 13 14 15 15 16 15 15 14 14 13 13
39 40 40 41 43 46 45 45 44 43 41 37 34 34 33 34 37 38 37 34 31 29 28 26 24 22 22 23 22 21 21 21 20 19 19 19 20 22 21 20 22 22 20 20 24 26 25 26 26 26 26 26 25 24 23 23 22 21 20 20 19 18 17 16 15 15 16 16 15 15 15 14 14 14 13 13 15 16 17 16 15 15 15 14 14
42 44 44 46 50 52 52 49 46 46 46 45 44 43 39 35 33 33 33 34 32 30 28 26 24 21 20 20 21 21 22 23 22 21 20 19 19 20 19 19 21 22 21 22 24 24 24 24 24 23 23 23 22 21 21 20 19 18 18 18 17 17 15 14 14 15 15 15 15 15 14 14 15 15 14 14 15 16 17 16 15 15 15 15 14
47 49 50 54 57 58 57 54 51 49 47 46 47 49 48 45 40 35 31 30 29 29 28 25 23 21 19 19 19 20 21 23 23 21 21 20 19 19 17 16 19 21 22 23 23 23 22 22 21 20 20 20 19 19 18 18 17 17 17 16 16 15 14 13 14 15 15 14 15 15 14 14 15 15 15 15 16 16 16 16 15 14 14 15 15
55 57 59 62 65 64 62 58 54 50 48 46 47 47 47 47 45 43 39 34 30 29 28 26 24 21 20 19 19 19 20 22 22 21 20 20 20 19 17 17 20 21 21 21 21 21 21 20 19 19 19 18 17 17 17 16 16 15 15 15 15 14 14 14 14 14 14 15 16 15 14 14 15 15 15 16 16 16 16 16 15 14 14 14 15
62 65 67 70 72 70 66 62 56 52 49 47 47 46 45 44 43 41 40 38 35 32 28 25 23 21 20 20 20 19 19 20 21 19 19 20 20 19 19 21 22 22 21 20 19 19 18 18 18 18 17 17 17 16 15 15 15 14 13 13 14 14 14 14 14 13 13 14 15 15 15 15 15 14 15 16 16 16 16 15 14 14 13 13 14
71 73 74 76 77 74 70 64 57 53 50 48 46 45 44 42 41 40 37 36 35 34 32 28 25 22 21 21 21 18 18 19 19 19 19 19 18 18 19 20 20 20 19 18 18 17 17 16 16 16 16 16 16 16 15 14 13 13 13 12 12 13 14 15 14 13 13 13 14 15 15 15 15 14 14 16 16 15 14 14 14 14 14 14 15
79 79 79 80 80 78 72 65 58 53 50 48 46 44 42 41 40 39 37 35 33 32 31 31 30 28 26 25 23 20 19 20 19 18 19 20 19 18 18 18 17 17 16 15 14 14 14 14 14 14 14 14 14 14 14 13 12 12 13 12 12 12 13 15 14 13 13 13 13 14 14 15 15 14 13 14 15 15 13 12 13 13 14 15 16
87 84 83 84 83 79 73 66 59 55 51 48 46 43 41 39 37 36 35 33 31 29 27 26 26 26 27 27 25 23 23 24 23 21 20 20 19 18 18 17 16 15 14 12 11 11 11 11 11 12 12 12 12 12 12 12 11 11 11 11 11 11 12 14 14 14 13 12 12 12 13 14 14 13 13 13 13 13 13 12 11 12 13 15 17
92 88 88 89 86 80 75 67 60 56 52 49 47 44 41 38 35 33 31 29 28 26 24 22 20 20 21 22 22 22 21 21 22 21 19 17 16 15 14 14 13 12 12 11 10 9 8 7 8 9 9 9 9 9 9 9 9 9 9 9 10 10 10 12 13 14 13 12 12 11 11 12 12 12 12 12 11 11 11 11 11 11 11 13 15
96 93 92 92 89 83 77 69 62 57 54 50 47 44 41 37 34 31 28 26 23 21 20 19 18 17 16 16 16 17 17 17 16 15 14 13 13 11 10 10 9 9 9 9 8 7 6 5 5 5 5 6 6 6 6 6 6 7 7 7 7 8 9 10 11 12 12 12 12 11 10 9 10 11 11 11 10 10 10 11 11 11 11 11 12
100 97 95 93 90 85 80 72 65 60 55 50 46 42 38 35 32 29 27 24 21 19 16 15 14 14 13 13 12 11 11 12 11 11 10 9 8 7 6 5 5 5 6 6 6 6 5 3 2 1 1 2 2 2 2 2 3 4 5 5 5 6 7 8 9 10 10 11 11 10 9 9 8 9 9 9 9 9 9 9 10 10 11 10 10
101 99 96 95 93 89 82 75 68 63 57 50 44 38 34 32 28 26 25 23 21 19 16 13 12 11 10 9 9 7 7 7 7 7 7 5 4 4 2 1 1 1 2 2 2 2 2 2 1 359 359 359 359 358 359 359 360 1 2 3 4 4 5 6 7 7 8 9 9 8 8 7 7 7 7 8 8 8 8 8 8 8 9 9 8
103 101 99 99 97 93 87 77 69 62 53 45 37 31 29 27 24 21 20 18 17 16 14 12 11 10 8 7 6 5 4 3 4 3 3 2 1 0 359 359 358 357 357 358 358 359 359 360 359 358 357 356 356 356 356 356 356 357 359 1 2 3 3 4 4 5 5 6 7 7 6 6 5 5 5 6 6 6 6 6 6 7 7 7 6
105 105 106 107 104 99 92 82 71 61 50 40 32 26 23 21 18 16 15 13 11 10 9 8 8 8 7 5 4 3 2 1 1 0 359 359 358 357 356 356 356 354 354 354 354 354 355 356 356 355 355 354 353 354 354 354 355 355 356 358 359 0 1 1 2 2 3 3 3 4 4 3 3 2 2 3 3 3 4 4 4 4 4 5 5
112 114 114 114 113 109 100 85 70 58 45 34 26 21 17 15 12 11 9 7 6 5 3 3 3 3 3 2 1 360 360 358 357 356 355 354 355 354 353 353 352 352 351 350 349 350 350 350 350 351 352 351 352 352 353 353 354 354 354 355 356 357 358 359 359 360 360 360 360 360 360 1 0 360 359 360 360 0 1 1 1 2 2 2 2
121 122 123 121 119 115 103 84 65 49 33 21 14 11 9 6 5 5 2 1 2 0 359 358 359 358 358 357 357 356 355 354 353 353 352 351 351 351 350 350 349 349 348 347 346 346 346 346 347 348 349 349 350 350 351 352 352 353 353 354 354 355 355 356 356 356 356 356 356 355 355 356 357 356 356 356 357 357 358 358 359 359 359 359 360
128 128 128 128 126 120 104 80 57 35 19 7 2 1 359 358 357 357 356 356 357 356 355 355 355 354 353 353 352 352 352 351 351 350 349 349 348 348 347 347 346 346 346 345 343 343 343 343 344 345 346 347 348 348 348 349 350 350 351 351 351 352 352 352 352 352 352 351 351 351 351 352 353 354 353 353 353 353 354 355 356 356 356 356 357
135 133 133 133 133 128 107 67 31 9 359 355 352 350 351 351 351 351 351 352 351 352 352 351 350 350 350 349 348 348 348 347 347 347 346 345 345 345 345 344 343 343 344 343 342 341 341 341 342 342 343 344 345 345 345 346 346 347 348 348 348 348 347 347 347 347 347 347 348 348 348 349 350 350 349 349 349 349 350 351 352 353 353 353 353
140 139 140 145 149 149 147 339 350 350 345 343 344 343 343 343 344 345 346 346 346 346 347 346 346 346 346 346 345 345 345 344 344 344 343 343 342 341 341 341 341 340 341 341 341 340 340 339 340 340 340 341 341 341 341 342 342 343 344 344 344 344 343 343 343 342 342 343 344 345 345 345 346 346 345 344 345 345 346 347 348 348 349 350 351
145 146 148 158 171 196 279 310 331 339 336 334 334 334 334 336 338 339 341 342 343 342 342 342 342 342 343 343 343 343 342 342 341 341 341 340 339 339 339 339 339 340 340 340 340 339 338 337 337 337 337 337 338 338 338 338 339 339 340 340 340 340 340 339 339 338 338 339 340 341 341 340 341 341 341 340 340 341 343 344 344 345 346 347 348
149 150 157 173 206 254 292 310 322 327 327 326 327 328 329 332 334 335 336 338 339 339 340 340 340 340 340 340 340 340 339 339 338 338 339 339 338 338 338 338 338 338 338 338 338 337 336 336 335 335 335 335 336 335 335 335 335 336 337 337 336 336 336 335 335 335 335 335 336 336 336 336 336 337 337 337 337 338 339 340 340 341 342 343 344
Height
1497 1495 1492 1490 1488 1485 1483 1481 1479 1477 1474 1471 1469 1466 1463 1461 1459 1456 1454 1451 1448 1446 1443 1441 1438 1436 1434 1431 1429 1426 1424 1421 1419 1417 1415 1412 1410 1407 1404 1402 1399 1397 1395 1393 1390 1388 1386 1383 1381 1380 1378 1376 1374 1372 1371 1369 1367 1366 1365 1364 1363 1362 1360 1358 1354 1350 1348 1348 1346 1344 1342 1340 1338 1336 1334 1332 1330 1329 1327 1325 1323 1321 1319 1318 1316
1497 1494 1492 1490 1488 1486 1483 1481 1479 1477 1474 1471 1468 1466 1463 1461 1459 1456 1454 1451 1449 1446 1444 1441 1439 1436 1434 1432 1429 1427 1424 1422 1420 1417 1415 1412 1410 1407 1404 1402 1399 1397 1394 1392 1390 1387 1385 1383 1380 1378 1377 1375 1373 1371 1369 1368 1366 1365 1364 1362 1361 1360 1358 1356 1354 1350 1347 1346 1345 1343 1341 1339 1337 1335 1333 1331 1329 1327 1325 1323 1322 1320 1318 1316 1314
1497 1494 1493 1490 1488 1486 1484 1482 1479 1476 1474 1471 1468 1466 1463 1461 1459 1456 1454 1451 1449 1447 1444 1442 1440 1437 1435 1432 1429 1427 1424 1422 1420 1417 1415 1412 1410 1407 1404 1402 1399 1396 1394 1391 1389 1387 1384 1382 1380 1378 1376 1374 1372 1370 1368 1366 1365 1364 1362 1361 1360 1358 1356 1355 1352 1350 1347 1345 1344 1342 1340 1338 1336 1335 1333 1331 1328 1326 1324 1322 1321 1319 1317 1315 1313
1497 1495 1493 1490 1489 1487 1484 1482 1479 1476 1474 1471 1468 1466 1464 1461 1459 1457 1454 1452 1450 1448 1445 1443 1440 1438 1435 1432 1430 1427 1424 1422 1420 1418 1415 1412 1410 1407 1405 1402 1399 1397 1394 1391 1389 1386 1384 1382 1379 1377 1375 1373 1371 1369 1368 1366 1364 1363 1361 1359 1358 1356 1354 1353 1351 1349 1346 1344 1342 1341 1339 1337 1335 1334 1332 1330 1328 1326 1324 1321 1319 1317 1315 1314 1312
1497 1495 1493 1491 1489 1487 1484 1482 1479 1476 1474 1471 1469 1466 1464 1462 1459 1457 1455 1453 1451 1448 1446 1443 1441 1438 1436 1432 1430 1427 1424 1422 1420 1418 1415 1412 1410 1408 1405 1403 1400 1397 1394 1392 1389 1386 1384 1382 1379 1377 1375 1373 1371 1368 1367 1365 1363 1362 1360 1358 1357 1354 1353 1351 1349 1348 1346 1343 1341 1340 1339 1337 1335 1333 1332 1330 1327 1325 1323 1321 1318 1316 1314 1312 1311
1498 1496 1494 1491 1489 1487 1484 1482 1479 1476 1474 1471 1469 1467 1464 1462 1460 1458 1455 1453 1451 1449 1446 1444 1441 1439 1436 1433 1431 1428 1425 1422 1420 1418 1415 1413 1411 1408 1406 1403 1400 1398 1395 1392 1390 1387 1384 1382 1379 1377 1375 1372 1371 1368 1366 1364 1362 1361 1359 1357 1355 1353 1351 1350 1348 1346 1344 1343 1341 1339 1338 1336 1334 1333 1331 1329 1327 1324 1322 1320 1318 1316 1313 1311 1310
1498 1496 1494 1491 1489 1486 1484 1481 1479 1476 1474 1472 1470 1467 1465 1463 1460 1458 1456 1454 1452 1449 1447 1445 1442 1439 1437 1434 1432 1429 1426 1423 1421 1418 1416 1413 1411 1409 1406 1404 1401 1399 1396 1393 1390 1387 1385 1383 1380 1378 1375 1373 1371 1369 1366 1364 1362 1361 1359 1357 1355 1353 1351 1349 1347 1345 1344 1342 1341 1339 1338 1336 1334 1333 1331 1329 1327 1324 1322 1319 1317 1315 1313 1311 1309
1498 1496 1494 1491 1489 1486 1484 1482 1479 1477 1475 1473 1470 1468 1465 1463 1461 1459 1457 1455 1452 1450 1447 1445 1443 1441 1438 1435 1433 1430 1428 1425 1421 1419 1417 1414 1412 1409 1406 1403 1401 1399 1396 1393 1391 1388 1385 1383 1380 1378 1376 1374 1372 1369 1367 1365 1362 1360 1359 1357 1355 1353 1351 1349 1347 1346 1344 1343 1341 1339 1338 1336 1334 1332 1330 1328 1326 1324 1322 1320 1317 1315 1313 1311 1309
1498 1496 1494 1491 1489 1487 1485 1483 1480 1478 1475 1473 1471 1469 1466 1464 1462 1460 1458 1456 1453 1451 1448 1446 1444 1442 1439 1437 1434 1431 1429 1426 1423 1421 1418 1415 1413 1410 1406 1403 1401 1398 1396 1393 1391 1388 1386 1383 1381 1378 1376 1374 1373 1370 1368 1366 1363 1361 1359 1357 1355 1353 1352 1350 1348 1347 1345 1343 1342 1340 1338 1336 1334 1332 1330 1328 1326 1324 1322 1320 1318 1315 1313 1311 1309
1498 1496 1494 1492 1490 1487 1485 1483 1480 1478 1476 1474 1472 1470 1468 1465 1463 1461 1459 1456 1454 1452 1449 1447 1444 1442 1439 1437 1435 1432 1429 1427 1425 1423 1420 1417 1413 1410 1407 1403 1401 1398 1395 1393 1391 1388 1386 1383 1381 1379 1377 1375 1372 1370 1368 1366 1364 1362 1360 1358 1356 1354 1352 1351 1349 1347 1346 1344 1342 1340 1338 1336 1334 1332 1330 1328 1326 1324 1322 1320 1318 1315 1313 1311 1309
1498 1496 1494 1492 1490 1488 1485 1483 1481 1479 1477 1475 1472 1470 1468 1466 1464 1462 1459 1457 1455 1452 1450 1447 1445 1442 1440 1438 1435 1433 1430 1428 1425 1423 1422 1418 1414 1410 1407 1404 1401 1398 1395 1393 1390 1388 1386 1383 1380 1378 1376 1374 1372 1369 1367 1365 1364 1362 1360 1358 1356 1354 1353 1351 1349 1348 1346 1344 1342 1340 1338 1336 1334 1332 1330 1328 1326 1324 1322 1320 1318 1316 1314 1311 1309
1498 1496 1494 1492 1490 1488 1486 1484 1482 1480 1478 1476 1473 1471 1469 1467 1464 1462 1460 1457 1455 1453 1451 1448 1446 1443 1441 1438 1436 1433 1431 1428 1426 1423 1422 1419 1415 1410 1407 1404 1401 1398 1395 1393 1390 1388 1385 1383 1380 1378 1375 1373 1371 1369 1367 1365 1363 1362 1361 1359 1357 1355 1353 1351 1349 1348 1346 1344 1342 1340 1338 1336 1334 1332 1330 1327 1325 1323 1321 1319 1318 1315 1313 1311 1309
1499 1497 1495 1492 1490 1488 1487 1485 1483 1481 1478 1476 1474 1472 1469 1467 1465 1462 1460 1458 1456 1454 1451 1449 1446 1444 1441 1438 1436 1434 1431 1429 1426 1423 1421 1419 1415 1411 1408 1404 1401 1398 1395 1393 1390 1388 1385 1383 1380 1378 1375 1373 1371 1368 1366 1364 1363 1362 1360 1359 1357 1355 1354 1352 1350 1348 1346 1344 1342 1340 1338 1336 1334 1332 1329 1326 1324 1322 1320 1318 1316 1314 1312 1310 1308
1499 1497 1495 1493 1491 1489 1488 1486 1483 1481 1479 1476 1474 1472 1470 1467 1465 1463 1460 1458 1456 1454 1452 1449 1447 1444 1442 1439 1437 1434 1432 1429 1426 1424 1421 1418 1415 1412 1408 1405 1402 1399 1396 1393 1390 1388 1385 1383 1380 1378 1375 1373 1370 1368 1366 1364 1362 1361 1359 1358 1357 1355 1353 1352 1350 1347 1345 1344 1342 1340 1338 1336 1334 1331 1328 1325 1323 1321 1319 1316 1314 1312 1310 1308 1306
1499 1497 1495 1494 1492 1490 1488 1486 1484 1481 1479 1477 1475 1472 1470 1468 1465 1463 1461 1458 1456 1454 1452 1450 1448 1445 1443 1440 1438 1435 1432 1430 1427 1424 1421 1418 1415 1412 1409 1405 1402 1399 1396 1394 1391 1388 1386 1383 1380 1378 1375 1373 1371 1368 1366 1364 1362 1360 1359 1357 1356 1355 1353 1351 1349 1347 1345 1343 1342 1340 1337 1335 1333 1331 1327 1324 1322 1320 1318 1316 1314 1311 1308 1307 1305
1499 1497 1496 1494 1492 1491 1488 1486 1484 1482 1480 1478 1475 1473 1471 1468 1466 1464 1461 1459 1457 1455 1453 1451 1448 1446 1444 1441 1439 1436 1433 1430 1427 1424 1422 1419 1415 1412 1409 1406 1403 1400 1397 1394 1392 1389 1386 1383 1381 1378 1376 1373 1371 1368 1366 1364 1362 1360 1358 1357 1356 1354 1353 1351 1349 1347 1345 1343 1341 1339 1337 1334 1332 1330 1327 1323 1321 1319 1317 1315 1313 1310 1308 1306 1304
1499 1497 1496 1494 1492 1491 1489 1487 1485 1483 1480 1478 1476 1473 1471 1469 1466 1464 1462 1460 1458 1456 1454 1451 1449 1447 1444 1442 1439 1436 1434 1431 1428 1425 1422 1419 1415 1412 1409 1406 1403 1400 1397 1395 1392 1389 1387 1384 1381 1378 1376 1373 1371 1369 1366 1364 1362 1360 1358 1357 1355 1354 1352 1350 1349 1347 1345 1343 1341 1338 1336 1333 1330 1328 1326 1323 1320 1317 1315 1313 1311 1309 1307 1306 1304
1499 1497 1496 1494 1492 1491 1489 1487 1485 1483 1481 1479 1476 1474 1472 1469 1467 1465 1463 1461 1459 1457 1455 1452 1450 1448 1445 1443 1440 1437 1434 1432 1429 1425 1422 1419 1416 1412 1409 1407 1403 1400 1398 1395 1392 1390 1387 1384 1381 1379 1376 1373 1371 1369 1367 1364 1362 1360 1358 1357 1355 1353 1351 1349 1347 1346 1344 1342 1340 1337 1334 1332 1329 1326 1324 1322 1319 1316 1314 1312 1310 1308 1306 1305 1303
1499 1498 1496 1494 1493 1492 1490 1488 1486 1483 1481 1479 1476 1475 1472 1470 1468 1467 1465 1462 1460 1458 1456 1453 1451 1449 1446 1444 1441 1439 1436 1433 1429 1426 1423 1419 1416 1413 1410 1407 1404 1401 1398 1395 1393 1390 1387 1384 1382 1379 1377 1374 1372 1370 1367 1365 1362 1360 1358 1357 1355 1353 1351 1349 1346 1344 1342 1340 1337 1335 1332 1330 1328 1325 1323 1321 1318 1316 1314 1311 1309 1308 1306 1304 1302
1499 1498 1496 1495 1494 1492 1490 1488 1486 1484 1481 1479 1477 1475 1473 1472 1470 1468 1466 1464 1462 1460 1457 1455 1452 1450 1447 1445 1442 1439 1437 1434 1430 1427 1424 1420 1417 1414 1410 1407 1404 1401 1398 1395 1393 1390 1387 1384 1382 1379 1377 1374 1372 1370 1368 1366 1363 1361 1359 1357 1355 1353 1351 1349 1348 1345 1342 1340 1337 1334 1332 1329 1327 1325 1322 1320 1318 1316 1313 1311 1309 1307 1305 1303 1302
1500 1498 1497 1496 1494 1493 1491 1488 1486 1484 1482 1480 1478 1476 1474 1473 1471 1469 1467 1465 1463 1461 1459 1456 1454 1451 1449 1446 1443 1440 1438 1434 1431 1428 1425 1421 1418 1415 1411 1408 1405 1402 1400 1396 1393 1390 1387 1385 1382 1380 1377 1375 1373 1371 1368 1366 1364 1362 1360 1358 1356 1355 1353 1350 1348 1346 1343 1340 1337 1334 1332 1329 1327 1324 1322 1320 1318 1315 1313 1311 1309 1307 1304 1302 1300
1500 1499 1498 1496 1495 1493 1491 1489 1487 1485 1483 1481 1479 1478 1476 1474 1472 1470 1469 1467 1465 1463 1460 1458 1455 1452 1450 1447 1444 1442 1439 1436 1433 1429 1426 1423 1420 1416 1413 1410 1407 1404 1401 1397 1394 1391 1389 1386 1383 1381 1378 1376 1374 1372 1369 1367 1365 1363 1361 1360 1358 1356 1354 1351 1349 1346 1343 1341 1338 1335 1332 1329 1327 1324 1322 1320 1318 1316 1313 1311 1308 1306 1304 1302 1300
1500 1499 1498 1496 1495 1493 1491 1489 1487 1485 1484 1482 1480 1479 1477 1475 1473 1472 1470 1468 1466 1463 1461 1458 1456 1453 1451 1448 1445 1443 1440 1437 1434 1431 1427 1424 1421 1418 1415 1412 1409 1406 1402 1399 1396 1393 1390 1387 1384 1382 1380 1377 1375 1373 1370 1368 1366 1364 1362 1361 1359 1357 1355 1352 1350 1347 1344 1341 1338 1335 1332 1330 1327 1325 1322 1320 1318 1316 1313 1311 1308 1306 1303 1301 1299
1501 1499 1498 1496 1494 1492 1491 1490 1488 1486 1485 1483 1481 1479 1478 1476 1474 1472 1470 1468 1466 1464 1461 1459 1457 1454 1451 1449 1446 1444 1441 1438 1435 1432 1429 1426 1423 1420 1417 1414 1411 1408 1404 1401 1398 1395 1392 1389 1387 1384 1382 1379 1377 1374 1372 1370 1368 1365 1364 1362 1360 1358 1355 1353 1350 1347 1344 1342 1339 1336 1333 1331 1328 1325 1323 1320 1318 1315 1313 1310 1308 1305 1302 1300 1297
1501 1500 1498 1496 1495 1493 1491 1490 1489 1487 1486 1484 1482 1480 1478 1477 1475 1473 1471 1469 1466 1464 1462 1460 1458 1455 1452 1450 1447 1445 1442 1439 1436 1433 1431 1428 1425 1422 1419 1416 1413 1410 1407 1404 1401 1398 1396 1393 1390 1387 1384 1382 1379 1376 1374 1371 1369 1367 1365 1363 1361 1358 1356 1353 1351 1348 1345 1343 1340 1337 1335 1332 1330 1327 1324 1321 1318 1315 1313 1310 1307 1305 1302 1300 1297
1501 1499 1498 1496 1495 1494 1492 1490 1489 1487 1486 1484 1483 1481 1479 1477 1476 1474 1472 1470 1468 1465 1463 1461 1459 1456 1454 1451 1449 1446 1443 1440 1437 1435 1432 1429 1426 1424 1421 1419 1416 1412 1409 1407 1405 1402 1399 1396 1393 1390 1387 1384 1381 1378 1376 1374 1372 1370 1367 1365 1362 1359 1357 1354 1352 1349 1346 1344 1341 1339 1336 1333 1331 1328 1325 1322 1319 1316 1313 1310 1307 1304 1302 1299 1297
1501 1500 1498 1497 1496 1494 1492 1491 1490 1488 1487 1485 1483 1482 1480 1478 1477 1475 1473 1471 1469 1467 1465 1462 1459 1457 1455 1452 1450 1447 1444 1441 1438 1435 1432 1430 1427 1425 1422 1420 1417 1415 1412 1410 1408 1405 1403 1399 1397 1393 1390 1388 1384 1382 1379 1377 1374 1371 1369 1366 1363 1361 1359 1356 1353 1351 1348 1346 1343 1340 1338 1335 1332 1329 1326 1323 1320 1317 1313 1310 1307 1304 1301 1298 1295
1501 1500 1498 1497 1496 1495 1493 1492 1490 1489 1487 1486 1484 1483 1481 1479 1477 1475 1473 1471 1469 1468 1465 1463 1461 1458 1456 1453 1451 1448 1445 1442 1439 1436 1433 1431 1429 1426 1424 1422 1419 1416 1414 1412 1410 1408 1405 1402 1399 1396 1393 1390 1387 1384 1382 1379 1376 1373 1371 1368 1366 1363 1361 1358 1356 1353 1350 1347 1345 1342 1339 1336 1332 1329 1326 1323 1320 1317 1314 1310 1307 1304 1301 1297 1294
1501 1500 1499 1497 1496 1495 1494 1492 1490 1489 1488 1486 1485 1483 1481 1480 1478 1476 1474 1472 1470 1468 1466 1464 1462 1460 1457 1455 1452 1449 1447 1444 1441 1439 1436 1434 1431 1429 1426 1424 1421 1419 1417 1415 1413 1409 1406 1403 1400 1397 1395 1392 1389 1386 1383 1381 1378 1376 1373 1370 1368 1365 1363 1360 1357 1354 1352 1349 1346 1342 1339 1336 1333 1330 1327 1324 1321 1318 1314 1311 1308 1304 1301 1297 1294
1502 1501 1499 1498 1497 1496 1494 1493 1491 1490 1488 1487 1485 1484 1482 1481 1479 1477 1475 1473 1471 1469 1467 1465 1463 1461 1459 1457 1454 1451 1448 1446 1444 1441 1439 1437 1434 1431 1429 1427 1424 1422 1419 1417 1414 1411 1408 1405 1402 1399 1396 1393 1390 1388 1385 1382 1380 1377 1374 1372 1369 1366 1364 1361 1358 1356 1353 1350 1347 1344 1341 1338 1334 1331 1328 1325 1322 1319 1315 1312 1308 1305 1301 1297 1294
1502 1501 1500 1499 1498 1496 1495 1493 1492 1491 1489 1488 1486 1484 1483 1481 1479 1478 1476 1474 1473 1471 1469 1467 1465 1463 1461 1459 1456 1454 1451 1448 1446 1444 1441 1438 1436 1433 1431 1429 1426 1424 1422 1419 1416 1413 1410 1407 1404 1401 1399 1395 1393 1390 1387 1384 1382 1379 1376 1374 1371 1368 1365 1363 1360 1357 1354 1351 1348 1345 1342 1339 1336 1332 1329 1326 1323 1319 1316 1313 1309 1306 1302 1298 1295
1502 1501 1501 1500 1498 1497 1496 1494 1493 1492 1491 1489 1488 1486 1484 1482 1480 1479 1477 1475 1474 1472 1470 1468 1466 1464 1462 1460 1458 1455 1453 1450 1448 1445 1442 1440 1437 1435 1433 1431 1428 1426 1424 1421 1418 1415 1412 1409 1406 1403 1401 1398 1395 1392 1389 1387 1384 1381 1378 1376 1373 1370 1367 1365 1362 1359 1355 1353 1350 1346 1344 1341 1337 1334 1331 1327 1324 1320 1317 1314 1311 1307 1303 1300 1297
1503 1502 1501 1500 1499 1497 1496 1495 1494 1493 1491 1490 1489 1487 1486 1484 1482 1480 1478 1476 1475 1473 1471 1469 1467 1465 1463 1461 1459 1456 1454 1451 1449 1446 1444 1441 1439 1437 1435 1432 1430 1428 1425 1422 1419 1416 1414 1411 1408 1406 1403 1400 1397 1395 1392 1389 1386 1383 1380 1378 1375 1372 1370 1367 1363 1360 1357 1355 1351 1348 1345 1342 1339 1335 1332 1329 1325 1322 1318 1315 1312 1308 1305 1301 1298
1503 1502 1501 1500 1499 1498 1497 1496 1495 1493 1492 1491 1489 1488 1486 1485 1483 1482 1480 1478 1476 1475 1472 1471 1469 1467 1465 1462 1460 1457 1455 1452 1450 1448 1446 1443 1441 1439 1437 1435 1432 1429 1426 1423 1421 1418 1415 1413 1410 1407 1405 1402 1399 1397 1394 1391 1388 1385 1383 1380 1377 1374 1371 1368 1365 1362 1359 1356 1353 1350 1347 1344 1340 1337 1334 1330 1327 1323 1320 1317 1314 1310 1307 1303 1300
1503 1502 1502 1500 1499 1498 1498 1496 1495 1494 1493 1491 1490 1488 1487 1485 1484 1483 1481 1479 1478 1476 1474 1472 1470 1468 1466 1463 1461 1458 1456 1453 1451 1449 1447 1445 1443 1441 1438 1436 1433 1430 1428 1425 1422 1420 1417 1414 1412 1409 1406 1404 1401 1398 1396 1393 1390 1387 1384 1381 1378 1375 1372 1369 1366 1364 1361 1358 1354 1352 1348 1345 1342 1339 1335 1332 1328 1325 1322 1319 1316 1312 1309 1306 1302
1503 1502 1501 1500 1499 1499 1498 1496 1495 1494 1493 1492 1490 1489 1487 1486 1485 1483 1482 1480 1478 1476 1475 1473 1471 1469 1467 1464 1462 1459 1457 1455 1452 1450 1448 1446 1443 1441 1439 1436 1434 1431 1429 1426 1424 1421 1418 1416 1413 1411 1408 1405 1403 1400 1397 1394 1392 1389 1386 1383 1380 1377 1374 1371 1368 1365 1362 1359 1356 1353 1350 1347 1343 1340 1337 1333 1330 1327 1324 1321 1318 1315 1312 1308 1305
1503 1502 1501 1500 1499 1499 1498 1496 1496 1495 1493 1492 1491 1489 1488 1487 1485 1484 1482 1481 1479 1477 1476 1474 1472 1470 1468 1465 1463 1461 1458 1456 1453 1451 1449 1446 1444 1442 1439 1437 1435 1432 1430 1427 1425 1422 1420 1417 1414 1412 1409 1407 1404 1401 1399 1396 1393 1390 1387 1385 1382 1378 1376 1373 1370 1367 1364 1361 1357 1354 1351 1348 1345 1342 1338 1335 1332 1329 1326 1323 1320 1317 1314 1311 1308
1503 1502 1501 1500 1499 1498 1498 1497 1496 1495 1494 1492 1491 1490 1489 1487 1486 1484 1483 1481 1479 1478 1476 1474 1472 1470 1468 1466 1464 1462 1460 1457 1455 1452 1450 1447 1445 1443 1441 1438 1436 1433 1431 1428 1426 1423 1421 1418 1415 1413 1410 1408 1405 1402 1400 1397 1394 1392 1389 1386 1383 1380 1377 1374 1371 1368 1365 1362 1359 1356 1353 1350 1347 1344 1340 1337 1334 1331 1328 1325 1322 1319 1316 1313 1310
1502 1502 1501 1500 1500 1499 1498 1497 1497 1495 1494 1493 1492 1491 1489 1488 1486 1485 1483 1481 1480 1478 1476 1474 1472 1470 1468 1466 1464 1462 1459 1457 1455 1452 1450 1448 1446 1444 1441 1439 1437 1434 1432 1429 1427 1424 1422 1419 1416 1414 1411 1408 1406 1403 1401 1398 1395 1393 1390 1387 1384 1381 1378 1375 1372 1369 1366 1363 1360 1357 1354 1351 1349 1346 1342 1339 1336 1333 1330 1327 1324 1321 1317 1314 1311
1502 1502 1501 1500 1500 1499 1498 1498 1497 1496 1495 1493 1492 1491 1490 1488 1487 1485 1483 1482 1480 1478 1476 1474 1472 1470 1468 1465 1463 1461 1459 1457 1455 1453 1451 1449 1446 1444 1442 1440 1437 1435 1433 1430 1428 1425 1423 1420 1417 1414 1412 1409 1406 1404 1401 1398 1396 1393 1390 1388 1385 1382 1379 1376 1373 1370 1368 1365 1362 1359 1356 1353 1350 1347 1344 1341 1338 1335 1332 1329 1326 1323 1320 1316 1314
1502 1501 1501 1500 1500 1499 1499 1498 1497 1496 1495 1494 1493 1491 1490 1489 1487 1485 1484 1482 1480 1479 1477 1475 1473 1471 1468 1466 1464 1462 1460 1457 1455 1453 1451 1449 1447 1445 1442 1440 1438 1435 1433 1431 1428 1426 1423 1421 1418 1415 1412 1410 1407 1404 1402 1399 1396 1393 1391 1388 1385 1382 1380 1377 1374 1371 1368 1366 1363 1360 1357 1354 1351 1348 1345 1342 1339 1336 1333 1330 1327 1324 1321 1318 1315
1502 1501 1501 1501 1500 1500 1499 1498 1497 1496 1495 1494 1493 1492 1491 1489 1487 1486 1484 1482 1481 1479 1477 1475 1473 1471 1469 1467 1465 1463 1461 1458 1456 1454 1452 1450 1448 1445 1443 1441 1438 1436 1433 1431 1428 1426 1424 1421 1418 1416 1413 1410 1407 1404 1402 1399 1396 1394 1391 1388 1386 1383 1380 1377 1374 1372 1369 1366 1363 1360 1357 1354 1352 1349 1346 1343 1340 1337 1334 1331 1328 1325 1322 1319 1316
1501 1501 1501 1501 1500 1500 1499 1498 1497 1496 1495 1494 1493 1492 1491 1489 1488 1486 1484 1483 1481 1479 1477 1475 1474 1472 1469 1467 1465 1463 1461 1459 1457 1455 1452 1450 1448 1446 1444 1441 1439 1436 1434 1431 1429 1426 1424 1421 1419 1416 1413 1410 1408 1405 1402 1399 1396 1394 1391 1389 1386 1383 1380 1378 1375 1372 1369 1366 1364 1361 1358 1355 1352 1349 1346 1343 1341 1338 1335 1332 1330 1327 1324 1321 1317
1501 1501 1501 1500 1500 1500 1499 1498 1497 1496 1495 1494 1494 1492 1491 1489 1488 1486 1484 1482 1481 1479 1477 1475 1473 1471 1470 1468 1466 1464 1461 1459 1457 1455 1453 1451 1448 1446 1444 1442 1439 1437 1434 1431 1429 1426 1424 1421 1419 1416 1414 1411 1408 1405 1402 1400 1397 1394 1391 1389 1386 1383 1381 1378 1375 1372 1369 1366 1364 1361 1358 1355 1352 1350 1347 1344 1342 1339 1336 1333 1331 1328 1325 1322 1319
1501 1501 1501 1501 1500 1500 1499 1498 1497 1496 1495 1494 1493 1492 1491 1489 1488 1486 1484 1482 1480 1479 1477 1475 1473 1471 1469 1467 1465 1463 1461 1459 1457 1455 1453 1451 1448 1446 1444 1441 1439 1437 1434 1432 1429 1426 1424 1421 1418 1416 1414 1411 1408 1406 1403 1400 1397 1395 1392 1389 1386 1384 1381 1378 1375 1372 1369 1366 1364 1361 1358 1356 1353 1350 1347 1345 1342 1340 1337 1334 1331 1328 1326 1323 1320
1501 1501 1501 1500 1500 1499 1499 1498 1497 1496 1495 1494 1493 1492 1491 1489 1487 1486 1484 1482 1480 1479 1477 1475 1473 1471 1469 1467 1465 1463 1461 1459 1457 1455 1453 1450 1448 1446 1444 1441 1439 1436 1434 1431 1429 1426 1424 1421 1418 1416 1413 1411 1408 1406 1403 1400 1398 1395 1392 1389 1386 1384 1381 1378 1375 1372 1369 1366 1364 1361 1358 1356 1353 1351 1348 1346 1343 1340 1338 1335 1332 1329 1327 1324 1321
1501 1501 1500 1500 1500 1499 1498 1497 1496 1496 1495 1494 1493 1492 1490 1489 1487 1486 1484 1482 1480 1478 1476 1474 1473 1471 1469 1467 1465 1463 1461 1459 1456 1454 1452 1450 1448 1446 1443 1441 1438 1436 1434 1431 1429 1426 1424 1421 1418 1415 1413 1410 1408 1405 1403 1400 1397 1395 1392 1389 1386 1383 1380 1377 1374 1371 1369 1366 1363 1360 1358 1355 1353 1351 1348 1345 1343 1340 1338 1335 1333 1330 1327 1324 1322
1500 1500 1500 1500 1499 1498 1498 1497 1496 1495 1495 1494 1493 1491 1490 1489 1487 1485 1483 1482 1480 1478 1476 1474 1472 1470 1468 1466 1464 1462 1460 1458 1456 1454 1452 1449 1447 1445 1443 1440 1438 1436 1433 1431 1429 1426 1423 1421 1418 1415 1412 1410 1407 1404 1402 1399 1396 1394 1391 1388 1385 1383 1380 1377 1374 1371 1368 1366 1363 1360 1357 1355 1352 1350 1348 1345 1342 1340 1337 1334 1332 1329 1327 1324 1321
1500 1499 1499 1499 1499 1498 1498 1497 1496 1495 1494 1493 1492 1491 1490 1488 1486 1485 1483 1481 1479 1477 1475 1473 1471 1470 1468 1466 1464 1462 1460 1457 1455 1453 1451 1449 1447 1444 1442 1440 1437 1435 1433 1430 1428 1425 1423 1420 1417 1414 1412 1409 1406 1403 1401 1398 1395 1393 1390 1388 1385 1382 1379 1376 1373 1370 1367 1364 1362 1359 1357 1354 1352 1349 1347 1344 1342 1339 1337 1334 1331 1329 1326 1323 1321
1499 1499 1499 1499 1498 1498 1498 1497 1496 1495 1494 1493 1492 1491 1489 1488 1486 1484 1482 1481 1479 1477 1475 1473 1471 1469 1467 1465 1463 1461 1459 1456 1454 1452 1450 1448 1446 1443 1441 1439 1437 1434 1432 1430 1427 1424 1422 1419 1416 1413 1411 1408 1405 1402 1399 1397 1394 1392 1389 1386 1384 1381 1378 1375 1372 1369 1366 1363 1360 1358 1355 1353 1351 1348 1346 1344 1341 1338 1336 1333 1330 1328 1325 1322 1320
1499 1498 1498 1498 1498 1498 1497 1497 1496 1495 1494 1493 1492 1490 1489 1487 1485 1484 1482 1480 1478 1476 1474 1472 1470 1468 1466 1464 1462 1460 1458 1456 1453 1451 1449 1447 1445 1442 1440 1438 1435 1433 1430 1428 1426 1423 1420 1418 1415 1412 1409 1407 1404 1401 1398 1396 1393 1390 1387 1385 1382 1379 1376 1373 1370 1367 1364 1361 1359 1356 1354 1351 1349 1347 1345 1342 1339 1337 1334 1332 1329 1327 1324 1321 1319